Time,TemperatureF,DewpointF,PressureIn,WindDirection,WindDirectionDegrees,WindSpeedMPH,WindSpeedGustMPH,Humidity,HourlyPrecipIn,Conditions,Clouds,dailyrainin,SoftwareType,DateUTC
2013-03-18 00:00:00,35.1,34.5,30.18,SSE,158,10.0,15.0,98,-99.99,,,0.21,meteohub,2013-03-18 04:00:00,
2013-03-18 00:05:00,35.1,34.5,30.18,SSE,158,9.0,15.0,98,-99.99,,,0.21,meteohub,2013-03-18 04:05:00,
2013-03-18 00:10:00,34.9,34.3,30.18,SSE,158,7.0,13.0,98,-99.99,,,0.21,meteohub,2013-03-18 04:10:00,
2013-03-18 00:15:00,34.7,34.2,30.18,SSE,158,10.0,13.0,98,-99.99,,,0.21,meteohub,2013-03-18 04:15:00,
2013-03-18 00:20:00,34.5,34.0,30.18,SSE,158,14.0,14.0,98,-99.99,,,0.21,meteohub,2013-03-18 04:20:00,
2013-03-18 00:25:00,34.5,34.0,30.18,SSE,158,10.0,14.0,98,-99.99,,,0.21,meteohub,2013-03-18 04:25:00,
2013-03-18 00:30:00,34.5,34.0,30.18,SSE,158,8.0,14.0,98,-99.99,,,0.21,meteohub,2013-03-18 04:30:00,
2013-03-18 00:35:00,34.3,33.8,30.18,SSE,158,11.0,14.0,98,-99.99,,,0.21,meteohub,2013-03-18 04:35:00,
2013-03-18 00:40:00,34.3,33.8,30.18,SSE,158,10.0,13.0,98,-99.99,,,0.21,meteohub,2013-03-18 04:40:00,
2013-03-18 00:45:00,34.3,33.8,30.18,SSE,158,11.0,13.0,98,-99.99,,,0.21,meteohub,2013-03-18 04:45:00,
2013-03-18 00:51:00,34.2,33.6,30.18,SSE,158,12.0,13.0,98,-99.99,,,0.21,meteohub,2013-03-18 04:51:00,
2013-03-18 00:56:00,34.0,33.4,30.19,SSE,158,10.0,13.0,98,-99.99,,,0.21,meteohub,2013-03-18 04:56:00,
2013-03-18 01:00:00,34.0,33.4,30.19,SSE,158,13.0,13.0,98,-99.99,,,0.21,meteohub,2013-03-18 05:00:00,
2013-03-18 01:06:00,33.8,33.3,30.19,SSE,158,8.0,14.0,98,-99.99,,,0.21,meteohub,2013-03-18 05:06:00,
2013-03-18 01:10:00,33.8,33.3,30.19,SSE,158,6.0,14.0,98,-99.99,,,0.21,meteohub,2013-03-18 05:10:00,
2013-03-18 01:15:00,33.8,33.3,30.19,SSE,158,9.0,14.0,98,-99.99,,,0.21,meteohub,2013-03-18 05:15:00,
2013-03-18 01:21:00,33.6,33.1,30.19,SSE,158,8.0,12.0,98,-99.99,,,0.21,meteohub,2013-03-18 05:21:00,
2013-03-18 01:26:00,33.6,33.1,30.19,SSE,158,8.0,10.0,98,-99.99,,,0.21,meteohub,2013-03-18 05:26:00,
2013-03-18 01:31:00,33.6,33.1,30.19,South,180,12.0,15.0,98,-99.99,,,0.21,meteohub,2013-03-18 05:31:00,
2013-03-18 01:36:00,33.4,32.9,30.19,SSE,158,11.0,15.0,98,-99.99,,,0.21,meteohub,2013-03-18 05:36:00,
2013-03-18 01:41:00,33.3,32.7,30.19,SSE,158,11.0,15.0,98,-99.99,,,0.21,meteohub,2013-03-18 05:41:00,
2013-03-18 01:46:00,33.3,32.7,30.19,SSE,158,10.0,13.0,98,-99.99,,,0.21,meteohub,2013-03-18 05:46:00,
2013-03-18 01:51:00,33.3,32.7,30.19,SSE,158,11.0,11.0,98,-99.99,,,0.21,meteohub,2013-03-18 05:51:00,
2013-03-18 01:56:00,33.3,32.7,30.19,SSE,158,11.0,13.0,98,-99.99,,,0.21,meteohub,2013-03-18 05:56:00,
2013-03-18 02:01:00,33.3,32.7,30.19,SSE,158,11.0,13.0,98,-99.99,,,0.21,meteohub,2013-03-18 06:01:00,
2013-03-18 02:06:00,33.1,32.5,30.19,SSE,158,10.0,13.0,98,-99.99,,,0.21,meteohub,2013-03-18 06:06:00,
2013-03-18 02:11:00,33.1,32.5,30.19,SSE,158,13.0,13.0,98,-99.99,,,0.21,meteohub,2013-03-18 06:11:00,
2013-03-18 02:16:00,32.9,32.4,30.19,SSE,158,11.0,15.0,98,-99.99,,,0.21,meteohub,2013-03-18 06:16:00,
2013-03-18 02:21:00,32.7,32.2,30.20,SSE,158,12.0,16.0,98,-99.99,,,0.21,meteohub,2013-03-18 06:21:00,
2013-03-18 02:26:00,32.7,32.2,30.20,ESE,112,13.0,16.0,98,-99.99,,,0.21,meteohub,2013-03-18 06:26:00,
2013-03-18 02:31:00,32.5,32.0,30.20,SSE,158,10.0,16.0,98,-99.99,,,0.21,meteohub,2013-03-18 06:31:00,
2013-03-18 02:36:00,32.5,32.0,30.20,SE,135,8.0,15.0,98,-99.99,,,0.21,meteohub,2013-03-18 06:36:00,
2013-03-18 02:42:00,32.5,32.0,30.20,SSE,158,12.0,15.0,98,-99.99,,,0.21,meteohub,2013-03-18 06:42:00,
2013-03-18 02:47:00,32.4,31.8,30.20,SSE,158,9.0,14.0,98,-99.99,,,0.21,meteohub,2013-03-18 06:47:00,
2013-03-18 02:52:00,32.2,31.6,30.20,SSE,158,9.0,15.0,98,-99.99,,,0.21,meteohub,2013-03-18 06:52:00,
2013-03-18 02:57:00,32.2,31.6,30.20,SSE,158,6.0,15.0,98,-99.99,,,0.21,meteohub,2013-03-18 06:57:00,
2013-03-18 03:02:00,32.2,31.6,30.20,SSE,158,6.0,11.0,98,-99.99,,,0.21,meteohub,2013-03-18 07:02:00,
2013-03-18 03:07:00,32.2,31.6,30.20,SSE,158,8.0,11.0,98,-99.99,,,0.21,meteohub,2013-03-18 07:07:00,
2013-03-18 03:12:00,32.0,31.5,30.20,SSE,158,6.0,10.0,98,-99.99,,,0.21,meteohub,2013-03-18 07:12:00,
2013-03-18 03:17:00,32.0,31.5,30.20,SSE,158,7.0,9.0,98,-99.99,,,0.21,meteohub,2013-03-18 07:17:00,
2013-03-18 03:22:00,32.0,31.5,30.20,SE,135,9.0,9.0,98,-99.99,,,0.21,meteohub,2013-03-18 07:22:00,
2013-03-18 03:27:00,32.0,31.5,30.20,SSE,158,8.0,9.0,98,-99.99,,,0.21,meteohub,2013-03-18 07:27:00,
2013-03-18 03:32:00,32.0,31.5,30.20,SSE,158,11.0,11.0,98,-99.99,,,0.21,meteohub,2013-03-18 07:32:00,
2013-03-18 03:37:00,31.8,31.3,30.20,SSE,158,8.0,11.0,98,-99.99,,,0.21,meteohub,2013-03-18 07:37:00,
2013-03-18 03:42:00,31.8,31.3,30.20,SSE,158,8.0,13.0,98,-99.99,,,0.21,meteohub,2013-03-18 07:42:00,
2013-03-18 03:47:00,31.8,31.3,30.17,SSE,158,7.0,13.0,98,-99.99,,,0.21,meteohub,2013-03-18 07:47:00,
2013-03-18 03:52:00,31.6,31.1,30.17,SSE,158,8.0,13.0,98,-99.99,,,0.21,meteohub,2013-03-18 07:52:00,
2013-03-18 03:57:00,31.6,31.1,30.17,ESE,112,8.0,11.0,98,-99.99,,,0.21,meteohub,2013-03-18 07:57:00,
2013-03-18 04:02:00,31.6,31.1,30.17,SSE,158,9.0,11.0,98,-99.99,,,0.21,meteohub,2013-03-18 08:02:00,
2013-03-18 04:07:00,31.6,31.1,30.17,SSE,158,8.0,11.0,98,-99.99,,,0.21,meteohub,2013-03-18 08:07:00,
2013-03-18 04:12:00,31.6,31.1,30.17,SE,135,10.0,11.0,98,-99.99,,,0.21,meteohub,2013-03-18 08:12:00,
2013-03-18 04:17:00,31.6,31.1,30.17,South,180,7.0,11.0,98,-99.99,,,0.21,meteohub,2013-03-18 08:17:00,
2013-03-18 04:22:00,31.5,30.9,30.17,SSE,158,6.0,10.0,98,-99.99,,,0.21,meteohub,2013-03-18 08:22:00,
2013-03-18 04:27:00,31.5,30.9,30.17,SSE,158,5.0,10.0,98,-99.99,,,0.21,meteohub,2013-03-18 08:27:00,
2013-03-18 04:32:00,31.5,30.9,30.17,SSE,158,6.0,10.0,98,-99.99,,,0.21,meteohub,2013-03-18 08:32:00,
2013-03-18 04:37:00,31.5,30.9,30.17,SSE,158,6.0,9.0,98,-99.99,,,0.21,meteohub,2013-03-18 08:37:00,
2013-03-18 04:42:00,31.5,30.9,30.17,South,180,4.0,9.0,98,-99.99,,,0.21,meteohub,2013-03-18 08:42:00,
2013-03-18 04:47:00,31.5,30.9,30.17,SSE,158,0.0,9.0,98,-99.99,,,0.21,meteohub,2013-03-18 08:47:00,
2013-03-18 04:52:00,31.3,30.7,30.17,SE,135,0.0,8.0,98,-99.99,,,0.21,meteohub,2013-03-18 08:52:00,
2013-03-18 04:57:00,31.3,30.7,30.17,SSE,158,0.0,6.0,98,-99.99,,,0.21,meteohub,2013-03-18 08:57:00,
2013-03-18 05:02:00,31.3,30.7,30.17,SSE,158,0.0,6.0,98,-99.99,,,0.21,meteohub,2013-03-18 09:02:00,
2013-03-18 05:07:00,31.3,30.7,30.17,SSE,158,0.0,0.0,98,-99.99,,,0.21,meteohub,2013-03-18 09:07:00,
2013-03-18 05:12:00,31.3,30.7,30.17,SSE,158,0.0,0.0,98,-99.99,,,0.21,meteohub,2013-03-18 09:12:00,
2013-03-18 05:18:00,31.1,30.6,30.18,SSE,158,0.0,0.0,98,-99.99,,,0.21,meteohub,2013-03-18 09:18:00,
2013-03-18 05:23:00,31.1,30.6,30.18,SSE,158,0.0,0.0,98,-99.99,,,0.21,meteohub,2013-03-18 09:23:00,
2013-03-18 05:28:00,31.1,30.6,30.18,SSE,158,0.0,0.0,98,-99.99,,,0.21,meteohub,2013-03-18 09:28:00,
2013-03-18 05:33:00,31.1,30.6,30.18,SSE,158,0.0,0.0,98,-99.99,,,0.21,meteohub,2013-03-18 09:33:00,
2013-03-18 05:38:00,31.1,30.6,30.18,SSE,158,0.0,0.0,98,-99.99,,,0.21,meteohub,2013-03-18 09:38:00,
2013-03-18 05:43:00,30.9,30.4,30.18,SE,135,0.0,0.0,98,-99.99,,,0.21,meteohub,2013-03-18 09:43:00,
2013-03-18 05:48:00,31.1,30.6,30.18,SSE,158,0.0,0.0,98,-99.99,,,0.21,meteohub,2013-03-18 09:48:00,
2013-03-18 05:53:00,30.9,30.4,30.18,SSE,158,0.0,0.0,98,-99.99,,,0.21,meteohub,2013-03-18 09:53:00,
2013-03-18 05:58:00,30.9,30.4,30.18,SSE,158,0.0,0.0,98,-99.99,,,0.21,meteohub,2013-03-18 09:58:00,
2013-03-18 06:03:00,30.9,30.4,30.21,SSE,158,0.0,0.0,98,-99.99,,,0.21,meteohub,2013-03-18 10:03:00,
2013-03-18 06:08:00,30.7,30.2,30.21,SSE,158,0.0,0.0,98,-99.99,,,0.21,meteohub,2013-03-18 10:08:00,
2013-03-18 06:13:00,30.7,30.2,30.21,SSE,158,0.0,0.0,98,-99.99,,,0.21,meteohub,2013-03-18 10:13:00,
2013-03-18 06:18:00,30.6,30.0,30.18,SSE,158,0.0,0.0,98,-99.99,,,0.21,meteohub,2013-03-18 10:18:00,
2013-03-18 06:23:00,30.6,30.0,30.18,SSE,158,0.0,0.0,98,-99.99,,,0.21,meteohub,2013-03-18 10:23:00,
2013-03-18 06:28:00,30.4,29.8,30.18,SSE,158,0.0,0.0,98,-99.99,,,0.21,meteohub,2013-03-18 10:28:00,
2013-03-18 06:33:00,30.4,29.8,30.18,SSE,158,0.0,0.0,98,-99.99,,,0.21,meteohub,2013-03-18 10:33:00,
2013-03-18 06:38:00,30.4,29.8,30.18,SSE,158,0.0,0.0,98,-99.99,,,0.21,meteohub,2013-03-18 10:38:00,
2013-03-18 06:43:00,30.4,29.8,30.18,SSE,158,0.0,0.0,98,-99.99,,,0.21,meteohub,2013-03-18 10:43:00,
2013-03-18 06:48:00,30.4,29.8,30.18,SSE,158,0.0,0.0,98,-99.99,,,0.21,meteohub,2013-03-18 10:48:00,
2013-03-18 06:53:00,30.4,29.8,30.18,SSE,158,0.0,0.0,98,-99.99,,,0.21,meteohub,2013-03-18 10:53:00,
2013-03-18 06:58:00,30.2,29.7,30.19,South,180,0.0,0.0,98,-99.99,,,0.21,meteohub,2013-03-18 10:58:00,
2013-03-18 07:03:00,30.2,29.7,30.19,South,180,0.0,0.0,98,-99.99,,,0.21,meteohub,2013-03-18 11:03:00,
2013-03-18 07:08:00,30.2,29.7,30.19,South,180,0.0,0.0,98,-99.99,,,0.21,meteohub,2013-03-18 11:08:00,
2013-03-18 07:13:00,30.2,29.7,30.19,South,180,0.0,0.0,98,-99.99,,,0.21,meteohub,2013-03-18 11:13:00,
2013-03-18 07:18:00,30.2,29.7,30.19,South,180,0.0,0.0,98,-99.99,,,0.21,meteohub,2013-03-18 11:18:00,
2013-03-18 07:23:00,30.2,29.7,30.19,South,180,0.0,0.0,98,-99.99,,,0.21,meteohub,2013-03-18 11:23:00,
2013-03-18 07:28:00,30.0,29.5,30.19,South,180,0.0,0.0,98,-99.99,,,0.21,meteohub,2013-03-18 11:28:00,
2013-03-18 07:33:00,30.0,29.5,30.19,South,180,0.0,0.0,98,-99.99,,,0.21,meteohub,2013-03-18 11:33:00,
2013-03-18 07:38:00,30.0,29.5,30.19,South,180,0.0,0.0,98,-99.99,,,0.21,meteohub,2013-03-18 11:38:00,
2013-03-18 07:43:00,30.0,29.5,30.19,South,180,0.0,0.0,98,-99.99,,,0.21,meteohub,2013-03-18 11:43:00,
2013-03-18 07:48:00,30.0,29.5,30.19,South,180,0.0,0.0,98,-99.99,,,0.21,meteohub,2013-03-18 11:48:00,
2013-03-18 07:53:00,30.0,29.5,30.19,South,180,0.0,0.0,98,-99.99,,,0.21,meteohub,2013-03-18 11:53:00,
2013-03-18 07:58:00,30.0,29.5,30.19,South,180,0.0,0.0,98,-99.99,,,0.21,meteohub,2013-03-18 11:58:00,
2013-03-18 08:03:00,30.0,29.5,30.19,South,180,0.0,0.0,98,-99.99,,,0.21,meteohub,2013-03-18 12:03:00,
2013-03-18 08:08:00,29.8,29.3,30.19,South,180,0.0,0.0,98,-99.99,,,0.21,meteohub,2013-03-18 12:08:00,
2013-03-18 08:13:00,29.8,29.3,30.19,South,180,0.0,0.0,98,-99.99,,,0.21,meteohub,2013-03-18 12:13:00,
2013-03-18 08:19:00,30.0,29.5,30.19,South,180,0.0,0.0,98,-99.99,,,0.21,meteohub,2013-03-18 12:19:00,
2013-03-18 08:24:00,29.8,29.3,30.19,South,180,0.0,0.0,98,-99.99,,,0.21,meteohub,2013-03-18 12:24:00,
2013-03-18 08:29:00,29.8,29.3,30.19,South,180,0.0,0.0,98,-99.99,,,0.21,meteohub,2013-03-18 12:29:00,
2013-03-18 08:34:00,30.0,29.5,30.22,South,180,0.0,0.0,98,-99.99,,,0.21,meteohub,2013-03-18 12:34:00,
2013-03-18 08:39:00,30.0,29.5,30.22,South,180,0.0,0.0,98,-99.99,,,0.21,meteohub,2013-03-18 12:39:00,
2013-03-18 08:44:00,30.0,29.5,30.19,South,180,0.0,0.0,98,-99.99,,,0.21,meteohub,2013-03-18 12:44:00,
2013-03-18 08:49:00,29.8,29.3,30.19,South,180,0.0,0.0,98,-99.99,,,0.21,meteohub,2013-03-18 12:49:00,
2013-03-18 08:54:00,29.8,29.3,30.19,South,180,0.0,0.0,98,-99.99,,,0.21,meteohub,2013-03-18 12:54:00,
2013-03-18 08:59:00,29.8,29.3,30.19,South,180,0.0,0.0,98,-99.99,,,0.21,meteohub,2013-03-18 12:59:00,
2013-03-18 09:04:00,29.5,28.9,30.19,South,180,0.0,0.0,98,-99.99,,,0.21,meteohub,2013-03-18 13:04:00,
2013-03-18 09:09:00,29.8,29.3,30.19,South,180,0.0,0.0,98,-99.99,,,0.21,meteohub,2013-03-18 13:09:00,
2013-03-18 09:14:00,29.8,29.3,30.19,South,180,0.0,0.0,98,-99.99,,,0.21,meteohub,2013-03-18 13:14:00,
2013-03-18 09:19:00,29.8,29.3,30.19,South,180,0.0,0.0,98,-99.99,,,0.21,meteohub,2013-03-18 13:19:00,
2013-03-18 09:24:00,29.8,29.3,30.19,South,180,0.0,0.0,98,-99.99,,,0.21,meteohub,2013-03-18 13:24:00,
2013-03-18 09:29:00,30.0,29.5,30.19,South,180,0.0,0.0,98,-99.99,,,0.21,meteohub,2013-03-18 13:29:00,
2013-03-18 09:34:00,30.0,29.5,30.19,South,180,0.0,0.0,98,-99.99,,,0.21,meteohub,2013-03-18 13:34:00,
2013-03-18 09:39:00,30.0,29.5,30.19,South,180,0.0,0.0,98,-99.99,,,0.21,meteohub,2013-03-18 13:39:00,
2013-03-18 09:44:00,30.0,29.5,30.19,South,180,0.0,0.0,98,-99.99,,,0.21,meteohub,2013-03-18 13:44:00,
2013-03-18 09:49:00,30.0,29.5,30.19,South,180,0.0,0.0,98,-99.99,,,0.21,meteohub,2013-03-18 13:49:00,
2013-03-18 09:54:00,30.0,29.5,30.19,South,180,0.0,0.0,98,-99.99,,,0.21,meteohub,2013-03-18 13:54:00,
2013-03-18 09:59:00,30.2,29.7,30.19,South,180,0.0,0.0,98,-99.99,,,0.21,meteohub,2013-03-18 13:59:00,
2013-03-18 10:04:00,30.2,29.7,30.19,South,180,0.0,0.0,98,-99.99,,,0.21,meteohub,2013-03-18 14:04:00,
2013-03-18 10:09:00,30.2,29.7,30.19,South,180,0.0,0.0,98,-99.99,,,0.21,meteohub,2013-03-18 14:09:00,
2013-03-18 10:14:00,30.0,29.5,30.19,South,180,0.0,0.0,98,-99.99,,,0.21,meteohub,2013-03-18 14:14:00,
2013-03-18 10:19:00,30.2,29.7,30.19,South,180,0.0,0.0,98,-99.99,,,0.21,meteohub,2013-03-18 14:19:00,
2013-03-18 10:24:00,30.2,29.7,30.19,South,180,0.0,0.0,98,-99.99,,,0.21,meteohub,2013-03-18 14:24:00,
2013-03-18 10:29:00,30.2,29.7,30.19,South,180,0.0,0.0,98,-99.99,,,0.21,meteohub,2013-03-18 14:29:00,
2013-03-18 10:34:00,30.2,29.7,30.19,South,180,0.0,0.0,98,-99.99,,,0.21,meteohub,2013-03-18 14:34:00,
2013-03-18 10:39:00,30.2,29.7,30.19,South,180,0.0,0.0,98,-99.99,,,0.21,meteohub,2013-03-18 14:39:00,
2013-03-18 10:44:00,30.4,29.8,30.18,South,180,0.0,0.0,98,-99.99,,,0.21,meteohub,2013-03-18 14:44:00,
2013-03-18 10:49:00,30.4,29.8,30.18,South,180,0.0,0.0,98,-99.99,,,0.21,meteohub,2013-03-18 14:49:00,
2013-03-18 10:54:00,30.6,30.0,30.18,South,180,0.0,0.0,98,-99.99,,,0.21,meteohub,2013-03-18 14:54:00,
2013-03-18 10:59:00,30.6,30.0,30.18,South,180,0.0,0.0,98,-99.99,,,0.21,meteohub,2013-03-18 14:59:00,
2013-03-18 11:04:00,30.6,30.0,30.18,South,180,0.0,0.0,98,-99.99,,,0.21,meteohub,2013-03-18 15:04:00,
2013-03-18 11:09:00,30.6,30.0,30.18,South,180,0.0,0.0,98,-99.99,,,0.21,meteohub,2013-03-18 15:09:00,
2013-03-18 11:14:00,30.6,30.0,30.18,South,180,0.0,0.0,98,-99.99,,,0.21,meteohub,2013-03-18 15:14:00,
2013-03-18 11:20:00,30.7,30.2,30.18,South,180,0.0,0.0,98,-99.99,,,0.21,meteohub,2013-03-18 15:20:00,
2013-03-18 11:25:00,30.6,30.0,30.18,South,180,0.0,0.0,98,-99.99,,,0.21,meteohub,2013-03-18 15:25:00,
2013-03-18 11:30:00,30.7,30.2,30.14,South,180,0.0,0.0,98,-99.99,,,0.21,meteohub,2013-03-18 15:30:00,
2013-03-18 11:35:00,30.7,30.2,30.14,South,180,0.0,0.0,98,-99.99,,,0.21,meteohub,2013-03-18 15:35:00,
2013-03-18 11:40:00,30.9,30.4,30.14,South,180,0.0,0.0,98,-99.99,,,0.21,meteohub,2013-03-18 15:40:00,
2013-03-18 11:45:00,30.9,30.4,30.14,South,180,0.0,0.0,98,-99.99,,,0.21,meteohub,2013-03-18 15:45:00,
2013-03-18 11:50:00,30.9,30.4,30.14,South,180,0.0,0.0,98,-99.99,,,0.21,meteohub,2013-03-18 15:50:00,
2013-03-18 11:55:00,30.9,30.4,30.14,South,180,0.0,0.0,98,-99.99,,,0.21,meteohub,2013-03-18 15:55:00,
2013-03-18 12:00:00,30.9,30.4,30.14,South,180,0.0,0.0,98,-99.99,,,0.21,meteohub,2013-03-18 16:00:00,
2013-03-18 12:05:00,30.9,30.4,30.14,South,180,0.0,0.0,98,-99.99,,,0.21,meteohub,2013-03-18 16:05:00,
2013-03-18 12:10:00,31.1,30.6,30.14,South,180,0.0,0.0,98,-99.99,,,0.21,meteohub,2013-03-18 16:10:00,
2013-03-18 12:15:00,31.1,30.6,30.14,South,180,0.0,0.0,98,-99.99,,,0.21,meteohub,2013-03-18 16:15:00,
2013-03-18 12:20:00,31.1,30.6,30.14,South,180,0.0,0.0,98,-99.99,,,0.21,meteohub,2013-03-18 16:20:00,
2013-03-18 12:25:00,31.3,30.7,30.14,South,180,0.0,0.0,98,-99.99,,,0.21,meteohub,2013-03-18 16:25:00,
2013-03-18 12:30:00,31.5,30.9,30.14,South,180,0.0,0.0,98,-99.99,,,0.21,meteohub,2013-03-18 16:30:00,
2013-03-18 12:35:00,31.5,30.9,30.14,South,180,0.0,0.0,98,-99.99,,,0.21,meteohub,2013-03-18 16:35:00,
2013-03-18 12:40:00,31.6,31.1,30.14,South,180,0.0,0.0,98,-99.99,,,0.21,meteohub,2013-03-18 16:40:00,
2013-03-18 12:45:00,31.3,30.7,30.14,South,180,0.0,0.0,98,-99.99,,,0.21,meteohub,2013-03-18 16:45:00,
2013-03-18 12:50:00,31.1,30.6,30.14,South,180,0.0,0.0,98,-99.99,,,0.21,meteohub,2013-03-18 16:50:00,
2013-03-18 12:55:00,31.1,30.6,30.14,South,180,0.0,0.0,98,-99.99,,,0.21,meteohub,2013-03-18 16:55:00,
2013-03-18 13:00:00,31.1,30.6,30.11,South,180,0.0,0.0,98,-99.99,,,0.21,meteohub,2013-03-18 17:00:00,
2013-03-18 13:05:00,31.1,30.6,30.11,South,180,0.0,0.0,98,-99.99,,,0.21,meteohub,2013-03-18 17:05:00,
2013-03-18 13:10:00,31.5,30.9,30.11,South,180,0.0,0.0,98,-99.99,,,0.21,meteohub,2013-03-18 17:10:00,
2013-03-18 13:15:00,31.5,30.9,30.11,South,180,0.0,0.0,98,-99.99,,,0.21,meteohub,2013-03-18 17:15:00,
2013-03-18 13:20:00,31.6,31.1,30.10,South,180,0.0,0.0,98,-99.99,,,0.21,meteohub,2013-03-18 17:20:00,
2013-03-18 13:25:00,31.6,31.1,30.10,South,180,0.0,0.0,98,-99.99,,,0.21,meteohub,2013-03-18 17:25:00,
2013-03-18 13:30:00,31.8,31.3,30.10,South,180,0.0,0.0,98,-99.99,,,0.21,meteohub,2013-03-18 17:30:00,
2013-03-18 13:36:00,31.6,31.1,30.10,South,180,0.0,0.0,98,-99.99,,,0.21,meteohub,2013-03-18 17:36:00,
2013-03-18 13:41:00,31.8,31.3,30.10,South,180,0.0,0.0,98,-99.99,,,0.21,meteohub,2013-03-18 17:41:00,
2013-03-18 13:46:00,32.0,31.5,30.10,South,180,0.0,0.0,98,-99.99,,,0.21,meteohub,2013-03-18 17:46:00,
2013-03-18 13:51:00,32.2,31.6,30.10,South,180,0.0,0.0,98,-99.99,,,0.21,meteohub,2013-03-18 17:51:00,
2013-03-18 13:56:00,32.4,31.8,30.10,South,180,0.0,0.0,98,-99.99,,,0.21,meteohub,2013-03-18 17:56:00,
2013-03-18 14:01:00,32.4,31.8,30.06,South,180,0.0,0.0,98,-99.99,,,0.21,meteohub,2013-03-18 18:01:00,
2013-03-18 14:06:00,32.4,31.8,30.06,South,180,0.0,0.0,98,-99.99,,,0.21,meteohub,2013-03-18 18:06:00,
2013-03-18 14:11:00,32.5,32.0,30.06,South,180,0.0,0.0,98,-99.99,,,0.21,meteohub,2013-03-18 18:11:00,
2013-03-18 14:16:00,32.7,32.2,30.06,South,180,0.0,0.0,98,-99.99,,,0.21,meteohub,2013-03-18 18:16:00,
2013-03-18 14:21:00,32.7,32.2,30.06,South,180,0.0,0.0,98,-99.99,,,0.21,meteohub,2013-03-18 18:21:00,
2013-03-18 14:27:00,32.7,32.2,30.06,South,180,0.0,0.0,98,-99.99,,,0.21,meteohub,2013-03-18 18:27:00,
2013-03-18 14:32:00,32.7,32.2,30.06,South,180,0.0,0.0,98,-99.99,,,0.21,meteohub,2013-03-18 18:32:00,
2013-03-18 14:37:00,32.7,32.2,30.06,South,180,0.0,0.0,98,-99.99,,,0.21,meteohub,2013-03-18 18:37:00,
2013-03-18 14:42:00,32.9,32.4,30.06,South,180,0.0,0.0,98,-99.99,,,0.21,meteohub,2013-03-18 18:42:00,
2013-03-18 14:47:00,32.9,32.4,30.06,South,180,0.0,0.0,98,-99.99,,,0.21,meteohub,2013-03-18 18:47:00,
2013-03-18 14:52:00,32.9,32.4,30.06,South,180,0.0,0.0,98,-99.99,,,0.21,meteohub,2013-03-18 18:52:00,
2013-03-18 14:57:00,32.9,32.4,30.06,South,180,0.0,0.0,98,-99.99,,,0.21,meteohub,2013-03-18 18:57:00,
2013-03-18 15:02:00,32.9,32.4,30.02,South,180,0.0,0.0,98,-99.99,,,0.21,meteohub,2013-03-18 19:02:00,
2013-03-18 15:07:00,33.1,32.5,30.02,South,180,0.0,0.0,98,-99.99,,,0.21,meteohub,2013-03-18 19:07:00,
2013-03-18 15:12:00,33.1,32.5,30.02,South,180,0.0,0.0,98,-99.99,,,0.21,meteohub,2013-03-18 19:12:00,
2013-03-18 15:17:00,33.1,32.5,30.02,South,180,0.0,0.0,98,-99.99,,,0.21,meteohub,2013-03-18 19:17:00,
2013-03-18 15:22:00,33.3,32.7,30.02,SSW,202,0.0,0.0,98,-99.99,,,0.21,meteohub,2013-03-18 19:22:00,
2013-03-18 15:27:00,33.4,32.9,30.02,SSE,158,0.0,0.0,98,-99.99,,,0.21,meteohub,2013-03-18 19:27:00,
2013-03-18 15:32:00,33.3,32.7,30.02,SSE,158,0.0,0.0,98,-99.99,,,0.21,meteohub,2013-03-18 19:32:00,
2013-03-18 15:37:00,33.3,32.7,30.02,SSE,158,0.0,0.0,98,-99.99,,,0.21,meteohub,2013-03-18 19:37:00,
2013-03-18 15:42:00,33.3,32.7,30.02,SSE,158,0.0,0.0,98,-99.99,,,0.21,meteohub,2013-03-18 19:42:00,
2013-03-18 15:47:00,33.1,32.5,30.02,SSE,158,0.0,0.0,98,-99.99,,,0.21,meteohub,2013-03-18 19:47:00,
2013-03-18 15:52:00,33.1,32.5,30.02,SSE,158,0.0,0.0,98,-99.99,,,0.21,meteohub,2013-03-18 19:52:00,
2013-03-18 15:57:00,33.1,32.5,30.02,SSE,158,0.0,0.0,98,-99.99,,,0.21,meteohub,2013-03-18 19:57:00,
2013-03-18 16:02:00,33.1,32.5,30.02,SSE,158,0.0,0.0,98,-99.99,,,0.21,meteohub,2013-03-18 20:02:00,
2013-03-18 16:07:00,32.9,32.4,30.02,SSE,158,0.0,0.0,98,-99.99,,,0.21,meteohub,2013-03-18 20:07:00,
2013-03-18 16:13:00,32.9,32.4,30.02,South,180,0.0,0.0,98,-99.99,,,0.21,meteohub,2013-03-18 20:13:00,
2013-03-18 16:18:00,32.9,32.4,30.02,SSE,158,0.0,0.0,98,-99.99,,,0.21,meteohub,2013-03-18 20:18:00,
2013-03-18 16:23:00,33.3,32.7,30.02,SE,135,0.0,0.0,98,-99.99,,,0.21,meteohub,2013-03-18 20:23:00,
2013-03-18 16:28:00,33.4,32.9,30.02,SSE,158,0.0,0.0,98,-99.99,,,0.21,meteohub,2013-03-18 20:28:00,
2013-03-18 16:33:00,33.1,32.5,30.02,SSE,158,0.0,0.0,98,-99.99,,,0.21,meteohub,2013-03-18 20:33:00,
2013-03-18 16:38:00,32.9,32.4,30.02,SSE,158,0.0,0.0,98,-99.99,,,0.21,meteohub,2013-03-18 20:38:00,
2013-03-18 16:43:00,32.7,32.2,30.03,SSE,158,0.0,0.0,98,-99.99,,,0.21,meteohub,2013-03-18 20:43:00,
2013-03-18 16:48:00,32.9,32.4,29.99,SSE,158,0.0,0.0,98,-99.99,,,0.21,meteohub,2013-03-18 20:48:00,
2013-03-18 16:53:00,33.1,32.5,29.99,SSE,158,0.0,0.0,98,-99.99,,,0.21,meteohub,2013-03-18 20:53:00,
2013-03-18 16:58:00,32.9,32.4,29.99,SSE,158,0.0,0.0,98,-99.99,,,0.21,meteohub,2013-03-18 20:58:00,
2013-03-18 17:03:00,33.1,32.5,30.02,WNW,292,0.0,0.0,98,-99.99,,,0.21,meteohub,2013-03-18 21:03:00,
2013-03-18 17:08:00,35.4,34.9,30.00,WNW,292,0.0,0.0,98,-99.99,,,0.21,meteohub,2013-03-18 21:08:00,
2013-03-18 17:13:00,37.6,37.0,29.99,NNW,338,0.0,0.0,98,-99.99,,,0.21,meteohub,2013-03-18 21:13:00,
2013-03-18 17:18:00,39.2,38.7,29.97,WNW,292,0.0,0.0,98,-99.99,,,0.21,meteohub,2013-03-18 21:18:00,
2013-03-18 17:23:00,40.1,39.6,29.96,NW,315,0.0,0.0,98,-99.99,,,0.21,meteohub,2013-03-18 21:23:00,
2013-03-18 17:29:00,40.8,40.3,29.96,SSE,158,0.0,0.0,98,-99.99,,,0.21,meteohub,2013-03-18 21:29:00,
2013-03-18 17:34:00,39.2,38.7,29.97,NW,315,0.0,0.0,98,-99.99,,,0.21,meteohub,2013-03-18 21:34:00,
2013-03-18 17:39:00,40.6,40.1,29.96,NW,315,0.0,0.0,98,-99.99,,,0.21,meteohub,2013-03-18 21:39:00,
2013-03-18 17:44:00,41.7,41.2,29.95,WNW,292,0.0,0.0,98,-99.99,,,0.21,meteohub,2013-03-18 21:44:00,
2013-03-18 17:49:00,42.1,41.5,29.98,NNW,338,0.0,0.0,98,-99.99,,,0.21,meteohub,2013-03-18 21:49:00,
2013-03-18 17:54:00,42.1,41.5,29.98,NNW,338,0.0,0.0,98,-99.99,,,0.21,meteohub,2013-03-18 21:54:00,
2013-03-18 17:59:00,41.9,41.4,29.95,WNW,292,0.0,0.0,98,-99.99,,,0.21,meteohub,2013-03-18 21:59:00,
2013-03-18 18:04:00,41.7,41.2,29.95,NNW,338,0.0,0.0,98,-99.99,,,0.21,meteohub,2013-03-18 22:04:00,
2013-03-18 18:09:00,41.7,41.2,29.95,NW,315,3.0,0.0,98,-99.99,,,0.21,meteohub,2013-03-18 22:09:00,
2013-03-18 18:14:00,42.1,41.5,29.98,WNW,292,4.0,4.0,98,-99.99,,,0.21,meteohub,2013-03-18 22:14:00,
2013-03-18 18:19:00,42.1,41.5,29.98,WNW,292,4.0,6.0,98,-99.99,,,0.21,meteohub,2013-03-18 22:19:00,
2013-03-18 18:24:00,42.1,41.5,29.98,NNW,338,5.0,6.0,98,-99.99,,,0.21,meteohub,2013-03-18 22:24:00,
2013-03-18 18:29:00,42.1,41.5,29.98,WNW,292,6.0,8.0,98,-99.99,,,0.21,meteohub,2013-03-18 22:29:00,
2013-03-18 18:34:00,42.1,41.5,29.98,WNW,292,7.0,9.0,98,-99.99,,,0.21,meteohub,2013-03-18 22:34:00,
2013-03-18 18:39:00,42.1,41.5,29.98,WNW,292,4.0,9.0,98,-99.99,,,0.21,meteohub,2013-03-18 22:39:00,
2013-03-18 18:45:00,42.1,41.5,29.98,East,90,0.0,10.0,98,-99.99,,,0.21,meteohub,2013-03-18 22:45:00,
2013-03-18 18:50:00,42.1,41.5,29.98,East,90,0.0,10.0,98,-99.99,,,0.21,meteohub,2013-03-18 22:50:00,
2013-03-18 18:55:00,41.9,41.4,29.98,WSW,248,1.0,6.0,98,-99.99,,,0.21,meteohub,2013-03-18 22:55:00,
2013-03-18 19:00:00,40.6,40.1,29.99,SSW,202,4.0,4.0,98,-99.99,,,0.21,meteohub,2013-03-18 23:00:00,
2013-03-18 19:05:00,41.0,40.5,29.99,SSE,158,0.0,6.0,98,-99.99,,,0.21,meteohub,2013-03-18 23:05:00,
2013-03-18 19:10:00,41.7,41.2,29.99,SSW,202,1.0,10.0,98,-99.99,,,0.21,meteohub,2013-03-18 23:10:00,
2013-03-18 19:15:00,42.1,41.5,29.98,West,270,0.0,10.0,98,-99.99,,,0.21,meteohub,2013-03-18 23:15:00,
2013-03-18 19:20:00,42.3,41.7,29.98,NW,315,2.0,10.0,98,-99.99,,,0.21,meteohub,2013-03-18 23:20:00,
2013-03-18 19:25:00,42.4,41.9,29.98,NNW,338,4.0,4.0,98,-99.99,,,0.21,meteohub,2013-03-18 23:25:00,
2013-03-18 19:30:00,42.8,42.3,29.94,ESE,112,4.0,4.0,98,-99.99,,,0.21,meteohub,2013-03-18 23:30:00,
2013-03-18 19:35:00,43.2,42.6,29.94,WNW,292,4.0,6.0,98,-99.99,,,0.21,meteohub,2013-03-18 23:35:00,
2013-03-18 19:40:00,43.0,42.4,29.94,SSE,158,4.0,6.0,98,-99.99,,,0.21,meteohub,2013-03-18 23:40:00,
2013-03-18 19:45:00,42.3,41.7,29.95,ENE,68,0.0,6.0,98,-99.99,,,0.21,meteohub,2013-03-18 23:45:00,
2013-03-18 19:50:00,42.4,41.9,29.94,NW,315,1.0,6.0,98,-99.99,,,0.21,meteohub,2013-03-18 23:50:00,
2013-03-18 19:55:00,42.8,42.3,29.94,South,180,5.0,6.0,98,-99.99,,,0.21,meteohub,2013-03-18 23:55:00,
2013-03-18 20:00:00,43.3,42.8,29.94,West,270,4.0,7.0,98,-99.99,,,0.21,meteohub,2013-03-19 00:00:00,
2013-03-18 20:05:00,43.5,43.0,29.94,ESE,112,4.0,11.0,98,-99.99,,,0.21,meteohub,2013-03-19 00:05:00,
2013-03-18 20:10:00,43.2,42.6,29.94,SSE,158,2.0,11.0,98,-99.99,,,0.21,meteohub,2013-03-19 00:10:00,
2013-03-18 20:15:00,42.4,41.9,29.94,SSE,158,4.0,11.0,98,-99.99,,,0.21,meteohub,2013-03-19 00:15:00,
2013-03-18 20:20:00,41.4,40.8,29.95,SSE,158,1.0,10.0,98,-99.99,,,0.21,meteohub,2013-03-19 00:20:00,
2013-03-18 20:25:00,40.8,40.3,29.96,South,180,4.0,8.0,98,-99.99,,,0.21,meteohub,2013-03-19 00:25:00,
2013-03-18 20:30:00,40.5,39.9,29.93,SSE,158,6.0,8.0,98,-99.99,,,0.21,meteohub,2013-03-19 00:30:00,
2013-03-18 20:35:00,39.9,39.4,29.93,SSE,158,10.0,10.0,98,-99.99,,,0.21,meteohub,2013-03-19 00:35:00,
2013-03-18 20:40:00,39.2,38.7,29.94,SSE,158,8.0,11.0,98,-99.99,,,0.21,meteohub,2013-03-19 00:40:00,
2013-03-18 20:45:00,39.0,38.5,29.94,SSE,158,9.0,11.0,98,-99.99,,,0.21,meteohub,2013-03-19 00:45:00,
2013-03-18 20:50:00,38.7,38.1,29.94,SSE,158,9.0,11.0,98,-99.99,,,0.21,meteohub,2013-03-19 00:50:00,
2013-03-18 20:55:00,37.9,37.4,29.95,SSE,158,11.0,11.0,98,-99.99,,,0.21,meteohub,2013-03-19 00:55:00,
2013-03-18 21:00:00,37.2,36.7,29.92,SSE,158,10.0,13.0,98,-99.99,,,0.21,meteohub,2013-03-19 01:00:00,
2013-03-18 21:06:00,36.3,35.8,29.93,SSE,158,9.0,13.0,98,-99.99,,,0.21,meteohub,2013-03-19 01:06:00,
2013-03-18 21:11:00,34.7,34.2,29.94,SSE,158,6.0,12.0,98,-99.99,,,0.21,meteohub,2013-03-19 01:11:00,
2013-03-18 21:16:00,34.2,33.6,29.95,SSE,158,8.0,12.0,98,-99.99,,,0.21,meteohub,2013-03-19 01:16:00,
2013-03-18 21:21:00,33.6,33.1,29.95,SSE,158,3.0,12.0,98,-99.99,,,0.21,meteohub,2013-03-19 01:21:00,
2013-03-18 21:26:00,34.0,33.4,29.95,SSE,158,6.0,10.0,98,-99.99,,,0.21,meteohub,2013-03-19 01:26:00,
2013-03-18 21:31:00,35.1,34.5,29.97,South,180,2.0,10.0,98,-99.99,,,0.21,meteohub,2013-03-19 01:31:00,
2013-03-18 21:36:00,35.8,35.2,29.97,SSE,158,4.0,6.0,98,-99.99,,,0.21,meteohub,2013-03-19 01:36:00,
2013-03-18 21:41:00,36.5,36.0,29.96,SE,135,11.0,11.0,98,-99.99,,,0.21,meteohub,2013-03-19 01:41:00,
2013-03-18 21:46:00,37.8,37.2,29.95,SSE,158,11.0,12.0,98,-99.99,,,0.21,meteohub,2013-03-19 01:46:00,
2013-03-18 21:51:00,38.3,37.8,29.94,SSE,158,6.0,12.0,98,-99.99,,,0.21,meteohub,2013-03-19 01:51:00,
2013-03-18 21:56:00,38.7,38.1,29.94,SSE,158,6.0,12.0,98,-99.99,,,0.21,meteohub,2013-03-19 01:56:00,
2013-03-18 22:01:00,38.7,38.1,29.94,SSE,158,6.0,11.0,98,-99.99,,,0.21,meteohub,2013-03-19 02:01:00,
2013-03-18 22:06:00,38.7,38.1,29.94,South,180,6.0,9.0,98,-99.99,,,0.21,meteohub,2013-03-19 02:06:00,
2013-03-18 22:11:00,38.7,38.1,29.94,SE,135,8.0,9.0,98,-99.99,,,0.21,meteohub,2013-03-19 02:11:00,
2013-03-18 22:16:00,38.7,38.1,29.94,SSE,158,4.0,9.0,98,-99.99,,,0.21,meteohub,2013-03-19 02:16:00,
2013-03-18 22:21:00,38.7,38.1,29.94,SSE,158,5.0,9.0,98,-99.99,,,0.21,meteohub,2013-03-19 02:21:00,
2013-03-18 22:26:00,39.0,38.5,29.94,SSE,158,8.0,11.0,98,-99.99,,,0.21,meteohub,2013-03-19 02:26:00,
2013-03-18 22:32:00,39.6,39.0,29.90,South,180,6.0,11.0,98,-99.99,,,0.21,meteohub,2013-03-19 02:32:00,
2013-03-18 22:37:00,39.9,39.4,29.90,ESE,112,5.0,15.0,98,-99.99,,,0.21,meteohub,2013-03-19 02:37:00,
2013-03-18 22:42:00,39.7,39.2,29.90,SSE,158,6.0,15.0,98,-99.99,,,0.21,meteohub,2013-03-19 02:42:00,
2013-03-18 22:47:00,39.6,39.0,29.94,South,180,9.0,15.0,98,-99.99,,,0.21,meteohub,2013-03-19 02:47:00,
2013-03-18 22:52:00,39.6,39.0,29.94,SE,135,7.0,12.0,98,-99.99,,,0.21,meteohub,2013-03-19 02:52:00,
2013-03-18 22:57:00,39.6,39.0,29.94,SSE,158,8.0,11.0,98,-99.99,,,0.21,meteohub,2013-03-19 02:57:00,
2013-03-18 23:02:00,39.6,39.0,29.90,SSE,158,7.0,13.0,98,-99.99,,,0.21,meteohub,2013-03-19 03:02:00,
2013-03-18 23:07:00,39.6,39.0,29.90,SSE,158,6.0,13.0,98,-99.99,,,0.21,meteohub,2013-03-19 03:07:00,
2013-03-18 23:12:00,39.4,38.8,29.90,SSE,158,5.0,13.0,98,-99.99,,,0.21,meteohub,2013-03-19 03:12:00,
2013-03-18 23:17:00,39.2,38.7,29.94,SSE,158,5.0,11.0,98,-99.99,,,0.21,meteohub,2013-03-19 03:17:00,
2013-03-18 23:22:00,39.2,38.7,29.94,SSE,158,4.0,11.0,98,-99.99,,,0.21,meteohub,2013-03-19 03:22:00,
2013-03-18 23:27:00,39.0,38.5,29.94,SE,135,4.0,8.0,98,-99.99,,,0.21,meteohub,2013-03-19 03:27:00,
2013-03-18 23:32:00,38.8,38.3,29.94,SSE,158,2.0,6.0,98,-99.99,,,0.21,meteohub,2013-03-19 03:32:00,
2013-03-18 23:37:00,38.8,38.3,29.94,SSE,158,4.0,4.0,98,-99.99,,,0.21,meteohub,2013-03-19 03:37:00,
2013-03-18 23:42:00,39.0,38.5,29.94,South,180,6.0,6.0,98,-99.99,,,0.21,meteohub,2013-03-19 03:42:00,
2013-03-18 23:47:00,39.2,38.7,29.90,South,180,6.0,6.0,98,-99.99,,,0.21,meteohub,2013-03-19 03:47:00,
2013-03-18 23:52:00,39.2,38.7,29.90,SSE,158,6.0,6.0,98,-99.99,,,0.21,meteohub,2013-03-19 03:52:00,
2013-03-18 23:57:00,39.4,38.8,29.90,SSE,158,2.0,7.0,98,-99.99,,,0.21,meteohub,2013-03-19 03:57:00,